GW0959 Weather Reports


Display with metric or nautical units.
time (UTC)temp
F
wind
direction
speed
MPH
gust
MPH
rain 1hr
in
rain 24hr
in
rain mn
in
humidity
%
barometer
mb
20260509023946 71 208 0.0 0.0 0.00 0.00 0.00 53 1017.1
20260509023439 71 208 0.0 1.0 0.00 0.00 0.00 53 1017.1
20260509023408 72 209 0.0 1.0 0.00 0.00 0.00 52 1017.1
20260509022427 73 207 0.0 1.0 0.00 0.00 0.00 50 1017.1
20260509022143 74 207 0.0 1.0 0.00 0.00 0.00 48 1017.0
20260509021640 76 104 0.0 0.0 0.00 0.00 0.00 46 1017.1
20260509020911 75 104 0.0 2.0 0.00 0.00 0.00 47 1017.1
20260509020405 75 242 0.0 2.0 0.00 0.00 0.00 47 1017.1
20260509015900 75 210 0.0 3.0 0.00 0.00 0.00 46 1017.2
20260509015617 74 215 1.0 3.0 0.00 0.00 0.00 46 1017.2
20260509014847 74 332 0.0 2.0 0.00 0.00 0.00 45 1017.1
20260509014340 75 248 0.0 1.0 0.00 0.00 0.00 47 1017.1
20260509013834 75 248 0.0 3.0 0.00 0.00 0.00 44 1017.2
20260509013550 76 281 1.0 3.0 0.00 0.00 0.00 43 1017.2
20260509012822 77 164 0.0 3.0 0.00 0.00 0.00 41 1017.2
20260509012316 78 249 0.0 2.0 0.00 0.00 0.00 41 1017.2
20260509011809 78 193 0.0 2.0 0.00 0.00 0.00 40 1017.1
20260509011304 78 288 0.0 2.0 0.00 0.00 0.00 38 1017.2
20260509010758 78 178 1.0 4.0 0.00 0.00 0.00 41 1017.2
20260509010252 78 308 1.0 4.0 0.00 0.00 0.00 39 1017.2
20260509005746 78 327 1.0 4.0 0.00 0.00 0.00 38 1017.3
20260509005237 78 240 1.0 4.0 0.00 0.00 0.00 40 1017.3
20260509004733 79 201 0.0 3.0 0.00 0.00 0.00 39 1017.3
20260509004230 79 208 0.0 3.0 0.00 0.00 0.00 40 1017.3
20260509003723 79 296 0.0 3.0 0.00 0.00 0.00 37 1017.4
20260509003216 79 212 1.0 4.0 0.00 0.00 0.00 41 1017.4
20260509002710 79 173 1.0 6.0 0.00 0.00 0.00 39 1017.4
20260509002202 79 207 1.0 6.0 0.00 0.00 0.00 39 1017.5
20260509001656 79 90 0.0 3.0 0.00 0.00 0.00 41 1017.5
20260509001151 79 345 0.0 3.0 0.00 0.00 0.00 40 1017.6
20260509000644 78 207 1.0 3.0 0.00 0.00 0.00 44 1017.5
20260509000138 78 211 1.0 4.0 0.00 0.00 0.00 41 1017.6
20260508235826 78 271 2.0 4.0 0.00 0.00 0.00 42 1017.6
20260508235716 78 198 1.0 4.0 0.00 0.00 0.00 43 1017.6
20260508234620 78 205 2.0 5.0 0.00 0.00 0.00 42 1017.6
20260508234324 79 236 1.0 6.0 0.00 0.00 0.00 39 1017.8
20260508234210 78 224 1.0 6.0 0.00 0.00 0.00 38 1017.8
20260508233101 78 159 1.0 7.0 0.00 0.00 0.00 41 1017.8
20260508232827 79 233 2.0 7.0 0.00 0.00 0.00 39 1017.9
20260508232102 79 280 1.0 4.0 0.00 0.00 0.00 39 1017.9
20260508231601 79 255 1.0 5.0 0.00 0.00 0.00 41 1017.9
20260508231322 79 229 1.0 5.0 0.00 0.00 0.00 40 1017.9
20260508230600 79 243 1.0 5.0 0.00 0.00 0.00 42 1017.9
20260508230323 79 190 2.0 5.0 0.00 0.00 0.00 42 1018.0
20260508225558 79 201 1.0 4.0 0.00 0.00 0.00 44 1018.0
20260508225059 79 141 1.0 4.0 0.00 0.00 0.00 44 1018.1
20260508224557 79 240 1.0 4.0 0.00 0.00 0.00 43 1018.2
20260508224057 79 214 1.0 4.0 0.00 0.00 0.00 43 1018.2
20260508223602 79 203 1.0 4.0 0.00 0.00 0.00 44 1018.3
20260508223056 78 159 2.0 7.0 0.00 0.00 0.00 41 1018.4
20260508222555 78 208 1.0 7.0 0.00 0.00 0.00 43 1018.3
20260508222056 79 219 1.0 7.0 0.00 0.00 0.00 46 1018.4
20260508221557 78 239 2.0 7.0 0.00 0.00 0.00 44 1018.5
20260508221049 78 177 2.0 5.0 0.00 0.00 0.00 44 1018.5
20260508220543 78 260 2.0 9.0 0.00 0.00 0.00 45 1018.6
20260508220040 78 201 2.0 9.0 0.00 0.00 0.00 46 1018.7
20260508215540 78 248 2.0 6.0 0.00 0.00 0.00 44 1018.8
20260508215308 79 210 2.0 6.0 0.00 0.00 0.00 44 1018.8
20260508214540 78 212 2.0 6.0 0.00 0.00 0.00 45 1018.8
20260508214042 79 290 2.0 5.0 0.00 0.00 0.00 45 1018.8
20260508213539 79 212 1.0 5.0 0.00 0.00 0.00 47 1018.8
20260508213039 79 75 1.0 4.0 0.00 0.00 0.00 45 1018.9
20260508212537 78 101 2.0 6.0 0.00 0.00 0.00 44 1018.9
20260508212039 78 198 2.0 6.0 0.00 0.00 0.00 48 1018.9
20260508211537 78 226 2.0 5.0 0.00 0.00 0.00 45 1018.9
20260508211038 78 84 2.0 5.0 0.00 0.00 0.00 47 1019.0
20260508210757 79 314 2.0 5.0 0.00 0.00 0.00 45 1019.0
20260508210038 79 204 2.0 5.0 0.00 0.00 0.00 45 1019.0
20260508205539 79 186 2.0 5.0 0.00 0.00 0.00 49 1019.0
20260508205038 79 105 2.0 4.0 0.00 0.00 0.00 48 1019.2
20260508204756 79 162 2.0 3.0 0.00 0.00 0.00 43 1019.2
20260508204026 78 198 2.0 5.0 0.00 0.00 0.00 45 1019.2
20260508203520 78 267 2.0 5.0 0.00 0.00 0.00 42 1019.2
20260508203014 78 4 2.0 4.0 0.00 0.00 0.00 39 1019.2
20260508202508 78 173 2.0 5.0 0.00 0.00 0.00 46 1019.2
20260508202003 78 300 2.0 4.0 0.00 0.00 0.00 42 1019.3
20260508201459 78 150 1.0 5.0 0.00 0.00 0.00 44 1019.3
20260508200959 78 332 2.0 5.0 0.00 0.00 0.00 40 1019.2
20260508200457 78 133 2.0 5.0 0.00 0.00 0.00 41 1019.2
20260508195957 78 167 2.0 6.0 0.00 0.00 0.00 44 1019.3
20260508195455 78 101 2.0 6.0 0.00 0.00 0.00 39 1019.4
20260508194956 78 118 2.0 4.0 0.00 0.00 0.00 42 1019.4
20260508194718 78 161 2.0 4.0 0.00 0.00 0.00 42 1019.4
20260508194220 78 152 2.0 4.0 0.00 0.00 0.00 43 1019.5
20260508193456 78 208 1.0 4.0 0.00 0.00 0.00 43 1019.4
20260508192956 78 228 1.0 4.0 0.00 0.00 0.00 42 1019.4
20260508192457 77 150 2.0 6.0 0.00 0.00 0.00 43 1019.4
20260508191954 78 204 2.0 6.0 0.00 0.00 0.00 45 1019.4
20260508191453 77 141 2.0 4.0 0.00 0.00 0.00 45 1019.4
20260508190956 77 212 2.0 5.0 0.00 0.00 0.00 46 1019.4
20260508190452 77 355 2.0 5.0 0.00 0.00 0.00 44 1019.4
20260508185951 77 172 1.0 4.0 0.00 0.00 0.00 44 1019.4
20260508185708 77 142 2.0 4.0 0.00 0.00 0.00 44 1019.5
20260508184951 77 184 1.0 4.0 0.00 0.00 0.00 46 1019.5
20260508184444 76 221 1.0 4.0 0.00 0.00 0.00 44 1019.5
20260508183939 76 217 1.0 5.0 0.00 0.00 0.00 44 1019.7
20260508183433 76 345 1.0 5.0 0.00 0.00 0.00 46 1019.6
20260508182927 76 201 2.0 4.0 0.00 0.00 0.00 45 1019.7
20260508182421 76 207 2.0 4.0 0.00 0.00 0.00 45 1019.6
20260508182139 76 139 2.0 4.0 0.00 0.00 0.00 45 1019.6
20260508181411 76 198 1.0 4.0 0.00 0.00 0.00 43 1019.6
20260508180912 76 136 1.0 4.0 0.00 0.00 0.00 45 1019.6
20260508180410 75 171 1.0 3.0 0.00 0.00 0.00 44 1019.6
20260508175908 75 215 1.0 3.0 0.00 0.00 0.00 46 1019.6
20260508175408 75 201 1.0 3.0 0.00 0.00 0.00 45 1019.6
20260508174907 75 160 2.0 4.0 0.00 0.00 0.00 43 1019.6
20260508174405 75 207 1.0 4.0 0.00 0.00 0.00 45 1019.6
20260508173903 75 179 1.0 3.0 0.00 0.00 0.00 45 1019.6
20260508173404 75 201 1.0 4.0 0.00 0.00 0.00 44 1019.6
20260508173359 75 229 1.0 4.0 0.00 0.00 0.00 45 1019.6
20260508172402 74 129 1.0 3.0 0.00 0.00 0.00 43 1019.5
20260508171901 74 116 1.0 3.0 0.00 0.00 0.00 45 1019.5
20260508171400 74 153 1.0 3.0 0.00 0.00 0.00 44 1019.5
20260508170900 73 197 1.0 3.0 0.00 0.00 0.00 44 1019.5
20260508170400 73 195 1.0 3.0 0.00 0.00 0.00 46 1019.5
20260508165859 73 252 1.0 2.0 0.00 0.00 0.00 45 1019.5
20260508165401 73 243 1.0 3.0 0.00 0.00 0.00 45 1019.5
20260508164856 73 195 1.0 3.0 0.00 0.00 0.00 45 1019.5
20260508164356 73 205 1.0 3.0 0.00 0.00 0.00 47 1019.4
20260508163855 72 191 1.0 3.0 0.00 0.00 0.00 47 1019.4
20260508163355 72 156 1.0 3.0 0.00 0.00 0.00 46 1019.4
20260508162857 72 160 1.0 4.0 0.00 0.00 0.00 46 1019.5
20260508162355 71 117 2.0 4.0 0.00 0.00 0.00 44 1019.4
20260508161856 71 105 1.0 3.0 0.00 0.00 0.00 44 1019.4
20260508161616 71 156 1.0 2.0 0.00 0.00 0.00 44 1019.4
20260508160858 71 133 1.0 3.0 0.00 0.00 0.00 45 1019.3
20260508160351 70 119 1.0 3.0 0.00 0.00 0.00 43 1019.4
20260508155852 69 128 1.0 3.0 0.00 0.00 0.00 44 1019.4
20260508155352 68 113 1.0 3.0 0.00 0.00 0.00 42 1019.4
20260508154851 68 103 1.0 4.0 0.00 0.00 0.00 45 1019.5
20260508154352 67 122 1.0 4.0 0.00 0.00 0.00 47 1019.5
20260508154114 66 124 1.0 3.0 0.00 0.00 0.00 47 1019.4
20260508153352 65 106 1.0 3.0 0.00 0.00 0.00 47 1019.4
20260508152852 64 99 1.0 3.0 0.00 0.00 0.00 46 1019.4
20260508152844 64 109 1.0 3.0 0.00 0.00 0.00 49 1019.3
20260508151847 63 115 1.0 3.0 0.00 0.00 0.00 50 1019.3
20260508151348 63 84 1.0 3.0 0.00 0.00 0.00 50 1019.2
20260508150848 62 85 1.0 3.0 0.00 0.00 0.00 52 1019.2
20260508150348 62 89 1.0 3.0 0.00 0.00 0.00 52 1019.3
20260508145847 61 111 1.0 4.0 0.00 0.00 0.00 52 1019.3
20260508145348 61 93 1.0 4.0 0.00 0.00 0.00 53 1019.3
20260508144847 60 105 1.0 3.0 0.00 0.00 0.00 52 1019.3
20260508144347 60 97 1.0 2.0 0.00 0.00 0.00 54 1019.2
20260508143847 59 80 1.0 2.0 0.00 0.00 0.00 54 1019.3
20260508143344 59 93 1.0 2.0 0.00 0.00 0.00 55 1019.2
20260508142845 58 93 1.0 2.0 0.00 0.00 0.00 55 1019.2
20260508142344 58 99 1.0 2.0 0.00 0.00 0.00 55 1019.2
20260508141843 58 86 1.0 2.0 0.00 0.00 0.00 56 1019.0
20260508141343 57 96 1.0 2.0 0.00 0.00 0.00 56 1019.0
20260508140844 57 79 1.0 3.0 0.00 0.00 0.00 55 1019.0
20260508140606 57 69 1.0 3.0 0.00 0.00 0.00 55 1019.0
20260508135843 56 94 1.0 3.0 0.00 0.00 0.00 55 1018.9
20260508135344 56 101 0.0 3.0 0.00 0.00 0.00 56 1018.8
20260508134841 56 121 1.0 3.0 0.00 0.00 0.00 57 1018.8
20260508134603 56 95 1.0 3.0 0.00 0.00 0.00 58 1018.8
20260508133840 56 91 0.0 2.0 0.00 0.00 0.00 58 1018.7
20260508133339 56 93 1.0 3.0 0.00 0.00 0.00 57 1018.7
20260508133107 56 73 1.0 3.0 0.00 0.00 0.00 57 1018.6
20260508132340 56 91 0.0 2.0 0.00 0.00 0.00 57 1018.6
20260508132103 56 85 1.0 3.0 0.00 0.00 0.00 58 1018.6
20260508131339 56 75 1.0 7.0 0.00 0.00 0.00 58 1018.5
20260508130839 56 89 1.0 7.0 0.00 0.00 0.00 58 1018.5
20260508130335 56 74 1.0 4.0 0.00 0.00 0.00 59 1018.5
20260508125836 56 80 1.0 3.0 0.00 0.00 0.00 59 1018.5
20260508125336 56 68 1.0 5.0 0.00 0.00 0.00 58 1018.5
20260508125102 56 50 1.0 5.0 0.00 0.00 0.00 59 1018.5
20260508124335 56 86 0.0 2.0 0.00 0.00 0.00 60 1018.5
20260508123837 56 105 0.0 4.0 0.00 0.00 0.00 59 1018.5
20260508123335 56 82 0.0 4.0 0.00 0.00 0.00 59 1018.5
20260508122836 56 97 0.0 1.0 0.00 0.00 0.00 60 1018.5
20260508122559 57 80 0.0 3.0 0.00 0.00 0.00 60 1018.5
20260508121832 57 80 0.0 3.0 0.00 0.00 0.00 60 1018.5
20260508121331 57 62 0.0 1.0 0.00 0.00 0.00 60 1018.5
20260508120831 57 77 0.0 1.0 0.00 0.00 0.00 60 1018.5
20260508120332 56 94 0.0 1.0 0.00 0.00 0.00 61 1018.5
20260508115831 56 98 0.0 1.0 0.00 0.00 0.00 63 1018.5
20260508115331 56 99 0.0 1.0 0.00 0.00 0.00 63 1018.5
20260508114831 56 85 0.0 1.0 0.00 0.00 0.00 63 1018.5
20260508114331 57 83 0.0 2.0 0.00 0.00 0.00 63 1018.5
20260508113833 57 87 0.0 2.0 0.00 0.00 0.00 63 1018.5
20260508113545 56 99 0.0 1.0 0.00 0.00 0.00 64 1018.5
20260508112828 56 99 0.0 1.0 0.00 0.00 0.00 65 1018.5
20260508112328 57 99 0.0 1.0 0.00 0.00 0.00 65 1018.5
20260508111828 57 99 0.0 3.0 0.00 0.00 0.00 66 1018.4
20260508111327 57 79 0.0 3.0 0.00 0.00 0.00 66 1018.3
20260508110829 57 59 0.0 2.0 0.00 0.00 0.00 66 1018.3
20260508110328 57 73 0.0 1.0 0.00 0.00 0.00 67 1018.3
20260508105828 57 73 0.0 2.0 0.00 0.00 0.00 67 1018.3
20260508105329 57 86 0.0 2.0 0.00 0.00 0.00 68 1018.3
20260508104823 57 87 0.0 2.0 0.00 0.00 0.00 69 1018.3
20260508104323 56 100 0.0 2.0 0.00 0.00 0.00 70 1018.4
20260508103823 56 103 0.0 1.0 0.00 0.00 0.00 72 1018.4
20260508103325 55 103 0.0 1.0 0.00 0.00 0.00 75 1018.5
20260508102823 55 103 0.0 1.0 0.00 0.00 0.00 74 1018.5
20260508102804 55 89 0.0 1.0 0.00 0.00 0.00 76 1018.5
20260508101826 55 89 0.0 1.0 0.00 0.00 0.00 77 1018.5
20260508101326 55 89 0.0 1.0 0.00 0.00 0.00 78 1018.5
20260508100828 55 105 0.0 1.0 0.00 0.00 0.00 79 1018.5
20260508100322 55 106 0.0 1.0 0.00 0.00 0.00 79 1018.5
20260508095823 55 91 0.0 0.0 0.00 0.00 0.00 80 1018.5
20260508095323 55 90 0.0 0.0 0.00 0.00 0.00 79 1018.5
20260508094819 55 91 0.0 0.0 0.00 0.00 0.00 80 1018.5
20260508094319 55 91 0.0 0.0 0.00 0.00 0.00 79 1018.6
20260508093820 55 91 0.0 0.0 0.00 0.00 0.00 78 1018.6
20260508093320 56 90 0.0 1.0 0.00 0.00 0.00 79 1018.5
20260508092821 56 90 0.0 1.0 0.00 0.00 0.00 78 1018.5
20260508092320 56 90 0.0 0.0 0.00 0.00 0.00 78 1018.5
20260508091815 56 91 0.0 0.0 0.00 0.00 0.00 78 1018.5
20260508091315 56 91 0.0 1.0 0.00 0.00 0.00 78 1018.5
20260508090816 56 91 0.0 1.0 0.00 0.00 0.00 79 1018.4
20260508090315 56 90 0.0 0.0 0.00 0.00 0.00 79 1018.3
20260508085816 56 91 0.0 0.0 0.00 0.00 0.00 79 1018.3
20260508085318 57 91 0.0 0.0 0.00 0.00 0.00 78 1018.3
20260508084815 57 90 0.0 0.0 0.00 0.00 0.00 78 1018.4
20260508084316 57 90 0.0 0.0 0.00 0.00 0.00 77 1018.3
20260508083817 57 91 0.0 0.0 0.00 0.00 0.00 78 1018.3
20260508083312 57 91 0.0 1.0 0.00 0.00 0.00 78 1018.3
20260508082811 57 90 0.0 1.0 0.00 0.00 0.00 79 1018.5
20260508082313 57 90 0.0 1.0 0.00 0.00 0.00 80 1018.5
20260508081812 57 107 0.0 0.0 0.00 0.00 0.00 80 1018.4
20260508081311 57 107 0.0 0.0 0.00 0.00 0.00 80 1018.4
20260508080811 58 107 0.0 0.0 0.00 0.00 0.00 79 1018.4
20260508080312 58 107 0.0 1.0 0.00 0.00 0.00 79 1018.4
20260508075813 58 107 0.0 1.0 0.00 0.00 0.00 79 1018.4
20260508075311 58 107 0.0 1.0 0.00 0.00 0.00 79 1018.4
20260508075039 58 107 0.0 1.0 0.00 0.00 0.00 79 1018.4
20260508074307 58 107 0.0 1.0 0.00 0.00 0.00 79 1018.4
20260508073807 58 135 0.0 0.0 0.00 0.00 0.00 80 1018.4
20260508073308 58 135 0.0 0.0 0.00 0.00 0.00 80 1018.4
20260508072808 58 135 0.0 0.0 0.00 0.00 0.00 80 1018.4
20260508072308 58 135 0.0 0.0 0.00 0.00 0.00 81 1018.3
20260508072028 58 135 0.0 0.0 0.00 0.00 0.00 82 1018.3
20260508071308 58 135 0.0 0.0 0.00 0.00 0.00 82 1018.3
20260508070808 58 135 0.0 0.0 0.00 0.00 0.00 83 1018.4
20260508070304 58 135 0.0 0.0 0.00 0.00 0.00 83 1018.4
20260508065804 58 135 0.0 0.0 0.00 0.00 0.00 84 1018.5
20260508065307 58 135 0.0 0.0 0.00 0.00 0.00 85 1018.5
20260508064803 58 124 0.0 0.0 0.00 0.00 0.00 86 1018.5
20260508064303 58 124 0.0 0.0 0.00 0.00 0.00 86 1018.5
20260508063803 58 124 0.0 0.0 0.00 0.00 0.00 87 1018.6
20260508063527 58 124 0.0 1.0 0.00 0.00 0.00 88 1018.6
20260508062803 58 124 0.0 1.0 0.00 0.00 0.00 89 1018.6
20260508062307 58 124 0.0 1.0 0.00 0.00 0.00 89 1018.6
20260508061800 58 124 0.0 1.0 0.00 0.00 0.00 90 1018.6
20260508061300 58 178 0.0 0.0 0.00 0.00 0.00 90 1018.7
20260508060759 58 179 0.0 0.0 0.00 0.00 0.00 89 1018.7
20260508060301 58 179 0.0 0.0 0.00 0.00 0.00 89 1018.7
20260508055801 58 178 0.0 0.0 0.00 0.00 0.00 89 1018.7
20260508055259 58 179 0.0 0.0 0.00 0.00 0.00 89 1018.8
20260508054800 58 179 0.0 0.0 0.00 0.00 0.00 89 1018.8
20260508054520 58 179 0.0 0.0 0.00 0.00 0.00 89 1018.8
20260508053800 58 179 0.0 0.0 0.00 0.00 0.00 89 1018.8
20260508053257 59 179 0.0 0.0 0.00 0.00 0.00 89 1018.9
20260508053021 59 179 0.0 0.0 0.00 0.00 0.00 89 1018.9
20260508052521 59 179 0.0 0.0 0.00 0.00 0.00 88 1018.9
20260508051756 59 179 0.0 0.0 0.00 0.00 0.00 88 1018.9
20260508051255 59 179 0.0 0.0 0.00 0.00 0.00 88 1018.9
20260508050756 60 179 0.0 0.0 0.00 0.00 0.00 87 1019.0
20260508050256 60 178 0.0 0.0 0.00 0.00 0.00 87 1019.0
20260508045756 60 179 0.0 0.0 0.00 0.00 0.00 87 1019.2
20260508045256 60 179 0.0 0.0 0.00 0.00 0.00 87 1019.0
20260508044755 60 179 0.0 0.0 0.00 0.00 0.00 87 1019.0
20260508044257 60 179 0.0 0.0 0.00 0.00 0.00 86 1019.0
20260508043756 61 179 0.0 0.0 0.00 0.00 0.00 86 1019.0
20260508043256 61 179 0.0 0.0 0.00 0.00 0.00 86 1018.9
20260508042755 61 179 0.0 0.0 0.00 0.00 0.00 86 1018.9
20260508042256 61 179 0.0 0.0 0.00 0.00 0.00 86 1018.9
20260508041755 61 179 0.0 0.0 0.00 0.00 0.00 85 1018.9
20260508041515 62 179 0.0 0.0 0.00 0.00 0.00 85 1018.8
20260508041016 62 179 0.0 0.0 0.00 0.00 0.00 85 1018.8
20260508040255 62 179 0.0 0.0 0.00 0.00 0.00 84 1018.8
20260508035756 62 179 0.0 0.0 0.00 0.00 0.00 84 1018.7
20260508035256 63 179 0.0 0.0 0.00 0.00 0.00 84 1018.6
20260508034755 63 179 0.0 0.0 0.00 0.00 0.00 83 1018.6
20260508034255 63 207 0.0 0.0 0.00 0.00 0.00 82 1018.6
20260508033756 64 207 0.0 0.0 0.00 0.00 0.00 82 1018.5
20260508033521 64 207 0.0 0.0 0.00 0.00 0.00 81 1018.5
20260508032755 64 207 0.0 0.0 0.00 0.00 0.00 80 1018.5
20260508032253 65 207 0.0 0.0 0.00 0.00 0.00 79 1018.5
20260508031752 65 207 0.0 0.0 0.00 0.00 0.00 78 1018.4
20260508031251 66 207 0.0 0.0 0.00 0.00 0.00 77 1018.3
20260508030751 66 207 0.0 0.0 0.00 0.00 0.00 76 1018.3
20260508030252 67 207 0.0 0.0 0.00 0.00 0.00 75 1018.3
20260508030020 67 206 0.0 0.0 0.00 0.00 0.00 74 1018.3
20260508025255 68 207 0.0 0.0 0.00 0.00 0.00 73 1018.3
20260508024755 69 207 0.0 0.0 0.00 0.00 0.00 70 1018.3